Location: Unspecified
(49.9820°N, 20.4363°E)
Time: 22:46:39
(UTC+01:00)

ISS - Pass Details

Date: 09 November 2018
Orbit: 402 x 409 km, 51.6° (Epoch: 13 November)

Event Time Altitude Azimuth Distance (km) Brightness Sun altitude
Exits shadow 03:43:06 17° 81° (E) 1,102 -0.9 -28.6°
Drops below altitude 10° 03:44:01 10° 84° (E) 1,464 -0.1 -28.5°
Sets 03:46:07 0° 88° (E) 2,326 1.3 -28.1°
